Regional Weather Roundup
Issued by NWS Midland/Odessa, TX

Skip options and go directly to product.
Home | Oldest Version | Next Version | Current Version | All | Text Only | Save Text | Print | Product List | Glossary On

Skip product version selection by date and time.   
909
ASUS44 KMAF 022101
RWRMAF
MIDLAND AREA WEATHER ROUNDUP
NATIONAL WEATHER SERVICE MIDLAND TX
400 PM CDT THU JUL 02 2015

...IN SOUTHWEST TEXAS AND SOUTHEAST NEW MEXICO...

CITY           SKY/WX    TMP DP  RH WIND       PRES   REMARKS
ALPINE         SUNNY     92  55  28 N14G21    30.09S
ANDREWS        FAIR      89  61  38 SE15      30.00F
ARTESIA        MOSUNNY   93  61  33 VRB3G20   29.99F
BIG SPRING     MOSUNNY   87  62  42 SE7G17    30.02S
CARLSBAD       MOSUNNY   95  60  31 MISG      29.96F
DRYDEN           N/A     89  65  44 E10G17    29.94S
FORT STOCKTON  SUNNY     93  62  35 E10       29.96F
GUAD PASS      MOSUNNY   84  54  35 E9G23     30.15R
HOBBS          MOSUNNY   91  54  27 E10       30.01F
MARFA          PTSUNNY   91  57  31 N12G20    30.08S
MIDLAND AIRPK  MOSUNNY   90  62  39 SE10      30.00S
MIDLAND INTL   MOSUNNY   89  64  43 S10       29.99F
ODESSA         MOSUNNY   88  62  41 SE14G20   30.00F
PECOS          MOSUNNY   93  59  32 NE12G17   29.93F
PRESIDIO       NOT AVBL
SEMINOLE       SUNNY     92  57  30 SE10G16   30.00F
SNYDER         SUNNY     85  67  55 S10       30.00S
WINK           PTSUNNY   90  60  36 SE9G16    29.95S
$$
...OTHER STATIONS IN TEXAS...

CITY           SKY/WX    TMP DP  RH WIND       PRES   REMARKS
ABILENE        MOSUNNY   91  65  41 SW10G21   29.97F
AMARILLO       CLOUDY    85  61  44 VRB3      30.04F
AUSTIN         MOSUNNY   89  72  56 S17G24    29.98F
BROWNSVILLE    MOSUNNY   89  73  59 SE20      29.97R
CORPUS CHRISTI PTSUNNY   87  76  69 SE12G20   29.98F
DALLAS FTW     PTSUNNY   92  66  42 S16       29.93F
DEL RIO        MOSUNNY   87  67  51 SE20G25   29.91F
EL PASO        FAIR     100  49  17 CALM      29.95F
HOUSTON INT    PTSUNNY   90  71  53 S10       30.01S
LUBBOCK        PTSUNNY   90  56  31 SE14      29.98F
SAN ANGELO     SUNNY     88  65  46 S10       29.97S
SAN ANTONIO    MOSUNNY   89  72  56 SE17      29.98F
WACO           MOSUNNY   92  68  45 S18       29.98S
WICHITA FALLS  NOT AVBL
$$
...OTHER LOCATIONS IN NEW MEXICO...

CITY           SKY/WX    TMP DP  RH WIND       PRES   REMARKS
ALAMAGORDO     MOSUNNY   99  48  18 SW9       29.98F
ALBUQUERQUE    PTSUNNY   93  46  19 NW9       30.06F
CANNON AFB     NOT AVBL
CLOVIS         PTSUNNY   90  61  37 E9G18       N/A
HOLLOMAN AFB   MOSUNNY   98  47  17 S1        29.95F
ROSWELL        MOSUNNY   94  59  31 S9G17     29.99F
RUIDOSO        PTSUNNY   81  54  39 SE14      30.25S
SANTA FE       CLOUDY    81  46  29 E28G39    30.17R
TRUTH OR CONSE FAIR      95  41  15 E7        30.02F
TUCUMCARI      PTSUNNY   91  57  31 NE8       30.05F
$$

USA.gov is the U.S. government's official web portal to all federal, state and local government web resources and services.